• In Hungary
  • List of Countries
  • For 7 days
  • Water Temperature
  • Satellite Maps
  • Weather Map
  • News
  • Weather Widgets
  • user-avatar
    Login

    Hourly Weather Shardzha

    Today, 19 June, Tuesday

    Time Temperature Precipitation Wind Pressure Humidity
    00:00 +37°C° 0 mm 2 mps 748 mmHg 42%
    01:00 +37°C° 0 mm 2 mps 747 mmHg 40%
    02:00 +35°C° 0 mm 1 mps 747 mmHg 40%
    03:00 +35°C° 0 mm 1 mps 747 mmHg 40%
    04:00 +34°C° 0 mm 1 mps 747 mmHg 40%
    05:00 +35°C° 0 mm 1 mps 748 mmHg 38%
    06:00 +36°C° 0 mm 1 mps 748 mmHg 35%
    07:00 +37°C° 0 mm 1 mps 749 mmHg 33%
    08:00 +39°C° 0 mm 1 mps 749 mmHg 29%
    09:00 +41°C° 0 mm 1 mps 749 mmHg 25%
    10:00 +43°C° 0 mm 2 mps 749 mmHg 21%
    11:00 +45°C° 0 mm 2 mps 749 mmHg 21%
    12:00 +45°C° 0 mm 3 mps 749 mmHg 20%
    13:00 +47°C° 0 mm 4 mps 749 mmHg 19%
    14:00 +47°C° 0 mm 4 mps 749 mmHg 22%
    15:00 +46°C° 0 mm 5 mps 749 mmHg 24%
    16:00 +45°C° 0 mm 5 mps 748 mmHg 28%
    17:00 +43°C° 0 mm 4 mps 748 mmHg 30%
    18:00 +42°C° 0 mm 3 mps 748 mmHg 33%
    19:00 +40°C° 0 mm 3 mps 748 mmHg 35%
    20:00 +39°C° 0 mm 2 mps 748 mmHg 37%
    21:00 +39°C° 0 mm 2 mps 748 mmHg 38%
    22:00 +37°C° 0 mm 1 mps 748 mmHg 40%
    23:00 +36°C° 0 mm 1 mps 748 mmHg 41%

    Tomorrow, 20 June, Wednesday

    Time Temperature Precipitation Wind Pressure Humidity
    00:00 +36°C° 0 mm 1 mps 748 mmHg 41%
    01:00 +35°C° 0 mm 1 mps 748 mmHg 42%
    02:00 +35°C° 0 mm 1 mps 748 mmHg 42%
    03:00 +36°C° 0 mm 2 mps 748 mmHg 42%
    04:00 +35°C° 0 mm 2 mps 748 mmHg 42%
    05:00 +36°C° 0 mm 3 mps 748 mmHg 41%
    06:00 +36°C° 0 mm 3 mps 749 mmHg 39%
    07:00 +37°C° 0 mm 4 mps 749 mmHg 37%
    08:00 +40°C° 0 mm 4 mps 749 mmHg 33%
    09:00 +42°C° 0 mm 4 mps 750 mmHg 29%
    10:00 +45°C° 0 mm 5 mps 750 mmHg 24%
    11:00 +45°C° 0 mm 4 mps 750 mmHg 23%
    12:00 +47°C° 0 mm 4 mps 749 mmHg 22%
    13:00 +48°C° 0 mm 4 mps 749 mmHg 20%
    14:00 +48°C° 0 mm 4 mps 749 mmHg 22%
    15:00 +48°C° 0 mm 4 mps 749 mmHg 24%
    16:00 +47°C° 0 mm 5 mps 748 mmHg 26%
    17:00 +45°C° 0 mm 4 mps 748 mmHg 32%
    18:00 +43°C° 0 mm 4 mps 748 mmHg 38%
    19:00 +40°C° 0 mm 3 mps 748 mmHg 44%
    20:00 +40°C° 0 mm 2 mps 748 mmHg 46%
    21:00 +39°C° 0 mm 1 mps 749 mmHg 48%
    22:00 +35°C° 0 mm 0 mps 749 mmHg 51%
    23:00 +37°C° 0 mm 1 mps 749 mmHg 50%

    Day after tomorrow, 21 June, Thursday

    Time Temperature Precipitation Wind Pressure Humidity
    00:00 +37°C° 0 mm 1 mps 749 mmHg 50%
    01:00 +38°C° 0 mm 2 mps 748 mmHg 50%
    02:00 +37°C° 0 mm 2 mps 748 mmHg 51%
    03:00 +37°C° 0 mm 2 mps 748 mmHg 52%
    04:00 +35°C° 0 mm 1 mps 748 mmHg 54%
    05:00 +36°C° 0 mm 2 mps 749 mmHg 52%
    06:00 +37°C° 0 mm 2 mps 749 mmHg 50%
    07:00 +37°C° 0 mm 3 mps 749 mmHg 48%
    08:00 +39°C° 0 mm 3 mps 750 mmHg 42%
    09:00 +42°C° 0 mm 4 mps 750 mmHg 36%
    10:00 +44°C° 0 mm 4 mps 750 mmHg 30%
    11:00 +45°C° 0 mm 4 mps 750 mmHg 28%
    12:00 +47°C° 0 mm 4 mps 750 mmHg 25%
    13:00 +48°C° 0 mm 4 mps 749 mmHg 23%
    14:00 +48°C° 0 mm 5 mps 749 mmHg 23%
    15:00 +48°C° 0 mm 5 mps 748 mmHg 23%
    16:00 +48°C° 0 mm 6 mps 748 mmHg 23%
    17:00 +46°C° 0 mm 5 mps 748 mmHg 27%
    18:00 +45°C° 0 mm 5 mps 748 mmHg 30%
    19:00 +42°C° 0 mm 4 mps 748 mmHg 33%
    20:00 +41°C° 0 mm 4 mps 748 mmHg 37%
    21:00 +40°C° 0 mm 4 mps 748 mmHg 42%
    22:00 +38°C° 0 mm 3 mps 748 mmHg 46%
    23:00 +38°C° 0 mm 3 mps 748 mmHg 48%

    22 June, Friday

    Time Temperature Precipitation Wind Pressure Humidity
    00:00 +37°C° 0 mm 3 mps 748 mmHg 51%
    01:00 +37°C° 0 mm 3 mps 748 mmHg 54%
    02:00 +36°C° 0 mm 3 mps 748 mmHg 55%
    03:00 +36°C° 0 mm 3 mps 748 mmHg 56%
    04:00 +35°C° 0 mm 3 mps 748 mmHg 57%
    05:00 +36°C° 0 mm 3 mps 748 mmHg 58%
    06:00 +36°C° 0 mm 3 mps 748 mmHg 58%
    07:00 +36°C° 0 mm 3 mps 749 mmHg 59%
    08:00 +38°C° 0 mm 3 mps 749 mmHg 52%
    09:00 +39°C° 0 mm 3 mps 749 mmHg 44%
    10:00 +42°C° 0 mm 4 mps 749 mmHg 37%
    11:00 +43°C° 0 mm 4 mps 749 mmHg 34%
    12:00 +46°C° 0 mm 5 mps 749 mmHg 30%
    13:00 +47°C° 0 mm 5 mps 748 mmHg 27%
    14:00 +47°C° 0 mm 5 mps 748 mmHg 29%
    15:00 +46°C° 0 mm 5 mps 747 mmHg 31%
    16:00 +46°C° 0 mm 5 mps 747 mmHg 33%
    17:00 +43°C° 0 mm 5 mps 747 mmHg 38%
    18:00 +42°C° 0 mm 5 mps 747 mmHg 42%
    19:00 +41°C° 0 mm 4 mps 747 mmHg 47%
    20:00 +40°C° 0 mm 4 mps 747 mmHg 52%
    21:00 +38°C° 0 mm 4 mps 748 mmHg 57%
    22:00 +37°C° 0 mm 4 mps 748 mmHg 62%
    23:00 +37°C° 0 mm 4 mps 748 mmHg 64%

    23 June, Saturday

    Time Temperature Precipitation Wind Pressure Humidity
    00:00 +36°C° 0 mm 4 mps 747 mmHg 66%
    01:00 +36°C° 0 mm 4 mps 747 mmHg 69%
    02:00 +35°C° 0 mm 4 mps 747 mmHg 70%
    03:00 +35°C° 0 mm 4 mps 747 mmHg 71%
    04:00 +35°C° 0 mm 3 mps 747 mmHg 72%
    05:00 +35°C° 0 mm 3 mps 747 mmHg 70%
    06:00 +35°C° 0 mm 4 mps 747 mmHg 67%
    07:00 +35°C° 0 mm 4 mps 748 mmHg 65%
    08:00 +37°C° 0 mm 4 mps 748 mmHg 56%
    09:00 +38°C° 0 mm 4 mps 748 mmHg 48%
    10:00 +41°C° 0 mm 4 mps 748 mmHg 40%
    11:00 +42°C° 0 mm 4 mps 748 mmHg 37%
    12:00 +44°C° 0 mm 4 mps 748 mmHg 34%
    13:00 +46°C° 0 mm 5 mps 748 mmHg 30%
    14:00 +46°C° 0 mm 5 mps 747 mmHg 32%
    15:00 +45°C° 0 mm 5 mps 747 mmHg 33%
    16:00 +45°C° 0 mm 5 mps 746 mmHg 34%
    17:00 +43°C° 0 mm 5 mps 746 mmHg 39%
    18:00 +42°C° 0 mm 5 mps 747 mmHg 43%
    19:00 +40°C° 0 mm 5 mps 747 mmHg 48%
    20:00 +40°C° 0 mm 5 mps 747 mmHg 53%
    21:00 +39°C° 0 mm 5 mps 747 mmHg 59%
    22:00 +37°C° 0 mm 4 mps 747 mmHg 64%
    23:00 +36°C° 0 mm 4 mps 747 mmHg 65%

    24 June, Sunday

    Time Temperature Precipitation Wind Pressure Humidity
    00:00 +36°C° 0 mm 4 mps 747 mmHg 67%
    01:00 +36°C° 0 mm 4 mps 747 mmHg 69%
    02:00 +35°C° 0 mm 3 mps 747 mmHg 70%
    03:00 +35°C° 0 mm 3 mps 747 mmHg 70%
    04:00 +35°C° 0 mm 3 mps 746 mmHg 71%
    05:00 +35°C° 0 mm 2 mps 747 mmHg 69%
    06:00 +35°C° 0 mm 2 mps 747 mmHg 68%
    07:00 +35°C° 0 mm 2 mps 748 mmHg 66%
    08:00 +37°C° 0 mm 3 mps 748 mmHg 57%
    09:00 +38°C° 0 mm 3 mps 748 mmHg 49%
    10:00 +40°C° 0 mm 3 mps 748 mmHg 41%
    11:00 +42°C° 0 mm 3 mps 748 mmHg 37%
    12:00 +43°C° 0 mm 4 mps 748 mmHg 34%
    13:00 +45°C° 0 mm 4 mps 747 mmHg 30%
    14:00 +45°C° 0 mm 5 mps 747 mmHg 32%
    15:00 +45°C° 0 mm 5 mps 747 mmHg 33%
    16:00 +45°C° 0 mm 5 mps 746 mmHg 35%
    17:00 +43°C° 0 mm 5 mps 746 mmHg 39%
    18:00 +42°C° 0 mm 4 mps 747 mmHg 43%
    19:00 +40°C° 0 mm 4 mps 747 mmHg 47%
    20:00 +40°C° 0 mm 4 mps 747 mmHg 51%
    21:00 +38°C° 0 mm 3 mps 747 mmHg 55%
    22:00 +37°C° 0 mm 3 mps 747 mmHg 60%
    23:00 +37°C° 0 mm 3 mps 747 mmHg 62%
    Show more